Regional Weather Roundup
Issued by NWS

Home | Current Version | Previous Version | Graphics & Text | Print | Product List | Glossary On
Versions: 1 2 3 4 5 6 7 8 9 10 11 12 13 14 15 16 17 18 19 20 21 22 23 24 25 26 27 28 29 30 31 32 33 34 35 36 37 38 39 40 41 42 43 44 45 46 47 48 49 50
000
ASUS43 KOAX 221402
RWRNE

WEATHER ROUNDUP FOR NEBRASKA
NATIONAL WEATHER SERVICE OMAHA NE
800 AM CST WED FEB 22 2017

NOTES: SATELLITE DATA IS BEING USED TO AUGMENT CLOUD COVER ABOVE
       12000 FEET.
       "FAIR" INDICATES FEW OR NO CLOUDS BELOW 12,000 FEET WITH NO
       SIGNIFICANT WEATHER AND/OR OBSTRUCTIONS TO VISIBILITY.

  * THESE STATIONS DO NOT REPORT WEATHER SUCH AS RAIN...SNOW OR FOG.

NEZ001>004-019>022-054>056-221500-
NEBRASKA PANHANDLE

CITY           SKY/WX    TMP DP  RH WIND       PRES   REMARKS
SCOTTSBLUFF    CLOUDY    43  24  47 W17       29.86S
ALLIANCE       CLEAR     39  29  67 W25G32    29.79S WCI  28
CHADRON        CLOUDY    44  29  55 W9        29.80R
KIMBALL        PTCLDY    37  26  62 W17       29.87R WCI  28
SIDNEY         CLEAR     39  25  57 NW13G24   29.84S WCI  31
$$

NEZ057>060-069>072-079>082-221500-
SOUTHWEST NEBRASKA

CITY           SKY/WX    TMP DP  RH WIND       PRES   REMARKS
NORTH PLATTE   CLEAR     34  29  82 NW7       29.79S WCI  28
IMPERIAL       CLEAR     36  29  75 W9        29.86R WCI  29
LEXINGTON      CLEAR     38  28  67 W14       29.76R WCI  29
MCCOOK         CLEAR     44  31  60 NW20      29.80R
OGALLALA       CLEAR     32  29  88 S3        29.84R
$$

NEZ005>010-023>029-035>040-094-221500-
NORTH CENTRAL NEBRASKA

CITY           SKY/WX    TMP DP  RH WIND       PRES   REMARKS
VALENTINE      CLEAR     38  33  82 W7        29.73S WCI  33
AINSWORTH      CLEAR     42  37  82 W12       29.73R
BROKEN BOW     CLEAR     47  35  63 W9        29.72R
O`NEILL        CLEAR     44  36  73 W9        29.68R
ORD            CLEAR     38  29  70 NW6       29.70R WCI  33
THEDFORD       CLEAR     42  35  78 NW10      29.78S
$$

NEZ041-046>049-061>064-073>077-083>087-221500-
SOUTH CENTRAL NEBRASKA

CITY           SKY/WX    TMP DP  RH WIND       PRES   REMARKS
GRAND ISLAND   FAIR      39  30  70 W12       29.70R WCI  32
AURORA         FAIR      36  28  74 W8        29.67F WCI  30
HASTINGS       FAIR      42  29  59 W10       29.71R
HEBRON         FAIR      45  33  63 SW10      29.69R
HOLDREGE       FAIR      44  26  48 NW10      29.74S
KEARNEY *      FAIR      43  25  49 NW12      29.73S
YORK           FAIR      36  28  75 W10       29.68R WCI  28
$$

NEZ011>018-030>034-042>045-221500-
NORTHEAST NEBRASKA

CITY           SKY/WX    TMP DP  RH WIND       PRES   REMARKS
NORFOLK        FAIR      41  31  67 SW5       29.66R
ALBION         FAIR      37  30  75 CALM      29.69S
BLAIR          FAIR      46  35  65 S7        29.65S
FREMONT        FAIR      43  34  72 CALM      29.65R
TEKAMAH        FAIR      39  34  82 CALM      29.64R
WAYNE          FAIR      41  32  70 CALM      29.66R
$$

NEZ050>053-065>068-078-088>093-221500-
SOUTHEAST NEBRASKA

CITY           SKY/WX    TMP DP  RH WIND       PRES   REMARKS
LINCOLN        FAIR      40  34  79 S8        29.68S WCI  34
OMAHA EPPLEY   FAIR      44  35  70 SE8       29.66F
BEATRICE       FAIR      46  36  68 SW7       29.68F
FALLS CITY     FAIR      49  34  56 S12       29.68F
NEBRASKA CITY  FAIR      42  32  67 SW3       29.69R
PLATTSMOUTH    FAIR      45  32  61 SE7       29.67F
$$

NEZ044-045-051>053-067-221500-
OMAHA AREA

CITY           SKY/WX    TMP DP  RH WIND       PRES   REMARKS
OMAHA EPPLEY   FAIR      44  35  70 SE8       29.66F
BLAIR          FAIR      46  35  65 S7        29.65S
FREMONT        FAIR      43  34  72 CALM      29.65R
MILLARD        FAIR      46  37  71 CALM      29.65F
PLATTSMOUTH    FAIR      45  32  61 SE7       29.67F
WAHOO          FAIR      38  32  80 S3        29.65F
$$




USA.gov is the U.S. government's official web portal to all federal, state and local government web resources and services.